Location: Dilsberg
(49.3983°N, 8.8354°E)
Time: 05:28:59
(UTC+00:00)

Cosmos 1408 Rocket - Pass Details

Date: 19 May 2025
Orbit: 594 x 625 km, 82.6° (Epoch: 14 June)

Event Time Altitude Azimuth Distance (km) Brightness Sun altitude
Rises 22:54:58 0° 347° (NNW) 2,884 8.6 -20.4°
Reaches altitude 10° 22:57:14 10° 343° (NNW) 1,969 7.3 -20.4°
Maximum altitude 23:01:30 58° 265° (W) 705 3.7 -20.5°
Enters shadow 23:02:23 48° 218° (SW) 797 3.8 -20.5°
